Temp
14 13 12 11 9 8 7 6 5 4 4 4 3 2 2 2 2 1 -0 -1 -1 -1 -1 -1 -2 -1 -2 -2 -2 -2 -2 -1
13 12 11 9 8 7 6 5 4 5 5 3 3 1 3 2 1 -0 -1 -2 -2 -2 -2 -2 -2 -2 -2 -3 -3 -2 -2 -2
11 10 9 8 7 6 5 5 4 4 4 3 2 2 1 1 1 0 -1 -2 -3 -3 -3 -3 -3 -3 -3 -3 -3 -3 -3 -2
10 9 8 7 6 6 4 3 5 4 4 3 2 2 3 3 2 1 -1 -2 -3 -3 -4 -4 -4 -3 -3 -3 -4 -4 -4 -3
10 9 8 7 6 4 3 3 4 3 3 2 1 2 2 1 1 0 -1 -2 -3 -3 -4 -4 -4 -4 -4 -4 -4 -4 -5 -5
10 9 7 6 4 3 2 3 3 3 2 2 1 1 1 1 -0 -1 -1 -1 -2 -3 -4 -4 -4 -4 -4 -4 -4 -4 -5 -6
9 7 6 5 4 2 1 3 3 2 2 0 -1 -1 -1 -1 -1 -1 -1 -1 -2 -2 -4 -4 -4 -4 -4 -4 -5 -5 -6 -7
8 7 6 5 3 2 1 2 2 1 0 -1 -1 -1 -1 -1 -1 -1 -2 -2 -2 -3 -4 -4 -4 -4 -4 -5 -5 -6 -7 -8
8 7 6 4 3 2 1 1 1 -0 -0 -1 -1 -2 -1 -1 -2 -3 -2 -3 -3 -4 -4 -4 -4 -4 -5 -5 -6 -6 -7 -8
8 7 5 4 3 0 1 1 -0 0 -1 -1 -1 -2 -2 -3 -3 -3 -3 -3 -4 -4 -4 -4 -4 -5 -5 -6 -7 -7 -8 -8
7 6 5 4 1 0 1 0 0 -0 -1 -1 -2 -2 -3 -3 -3 -3 -4 -4 -4 -4 -4 -5 -5 -5 -6 -7 -7 -8 -8 -8
7 6 4 2 -0 1 0 1 0 -1 -1 -2 -2 -3 -3 -3 -3 -4 -4 -4 -4 -5 -5 -5 -6 -6 -7 -7 -8 -8 -8 -8
7 6 4 1 -1 0 0 0 -0 -1 -1 -2 -2 -3 -3 -3 -4 -4 -4 -5 -5 -5 -5 -6 -6 -6 -7 -7 -9 -9 -9 -8
7 5 4 0 0 0 0 0 -1 -1 -1 -2 -2 -3 -3 -4 -4 -4 -5 -5 -5 -5 -6 -6 -6 -6 -7 -8 -9 -9 -9 -9
7 6 3 2 -0 -1 -0 -0 -1 -1 -1 -2 -3 -3 -4 -4 -4 -5 -5 -5 -5 -5 -6 -6 -6 -6 -7 -8 -10 -10 -9 -9
7 6 4 1 0 -1 -0 -0 -1 -1 -2 -2 -3 -3 -4 -4 -5 -5 -5 -5 -5 -5 -5 -6 -6 -6 -7 -8 -10 -10 -9 -8
6 5 2 0 -0 -1 -1 -1 -1 -1 -2 -2 -3 -3 -4 -4 -4 -5 -5 -5 -5 -5 -5 -6 -6 -6 -7 -8 -9 -10 -9 -8
5 3 2 0 -0 -1 -0 -1 -1 -2 -2 -3 -3 -4 -4 -4 -4 -4 -5 -5 -5 -5 -5 -6 -6 -7 -8 -8 -8 -10 -9 -8
3 2 1 0 -1 -0 -0 -1 -1 -2 -2 -3 -4 -4 -4 -4 -4 -5 -5 -5 -5 -5 -5 -6 -6 -7 -8 -8 -8 -10 -9 -9
Height
1540 1544 1548 1550 1553 1555 1555 1555 1554 1554 1554 1553 1553 1551 1551 1549 1550 1546 1540 1541 1536 1532 1530 1528 1525 1520 1517 1514 1510 1508 1505 1500
1543 1546 1550 1552 1555 1556 1556 1555 1555 1557 1558 1555 1553 1551 1551 1551 1548 1544 1541 1538 1535 1531 1529 1528 1523 1520 1516 1513 1510 1506 1502 1499
1546 1549 1552 1555 1556 1557 1557 1557 1556 1555 1553 1552 1549 1551 1548 1546 1546 1544 1541 1536 1534 1530 1528 1525 1522 1519 1516 1513 1509 1506 1502 1499
1549 1552 1555 1557 1558 1559 1557 1555 1554 1554 1553 1551 1550 1549 1547 1548 1546 1545 1541 1537 1533 1530 1527 1524 1521 1518 1515 1512 1509 1505 1501 1497
1551 1554 1557 1558 1559 1558 1557 1555 1555 1554 1553 1551 1551 1551 1549 1547 1545 1543 1540 1537 1533 1529 1525 1523 1520 1517 1514 1511 1508 1505 1501 1496
1553 1556 1559 1560 1560 1559 1558 1556 1556 1555 1553 1552 1550 1550 1549 1547 1545 1542 1540 1536 1533 1529 1525 1522 1519 1516 1512 1510 1506 1503 1499 1495
1556 1558 1560 1562 1562 1561 1559 1558 1556 1555 1553 1552 1551 1550 1547 1546 1544 1541 1538 1535 1532 1529 1524 1521 1518 1515 1511 1508 1504 1500 1495 1491
1558 1561 1563 1564 1564 1563 1561 1558 1557 1556 1555 1554 1552 1550 1548 1547 1543 1541 1537 1534 1531 1527 1522 1519 1516 1513 1509 1505 1501 1496 1491 1487
1560 1563 1564 1566 1566 1564 1561 1560 1558 1558 1557 1555 1552 1550 1548 1546 1543 1540 1537 1533 1530 1526 1521 1518 1514 1510 1506 1502 1497 1492 1487 1483
1562 1565 1566 1567 1567 1565 1563 1561 1561 1561 1558 1556 1554 1551 1548 1545 1542 1540 1536 1533 1528 1524 1520 1516 1512 1508 1504 1499 1493 1488 1484 1480
1564 1566 1568 1568 1567 1565 1564 1564 1564 1561 1559 1557 1554 1551 1548 1545 1542 1539 1535 1531 1527 1523 1519 1514 1510 1505 1501 1495 1490 1485 1481 1477
1565 1567 1569 1569 1567 1566 1565 1566 1564 1562 1559 1557 1554 1551 1548 1546 1543 1539 1534 1530 1526 1521 1517 1512 1508 1503 1497 1492 1487 1482 1478 1473
1566 1568 1569 1569 1568 1566 1567 1566 1565 1562 1560 1558 1555 1552 1549 1546 1542 1538 1534 1529 1525 1520 1515 1511 1506 1501 1496 1490 1484 1478 1474 1469
1567 1569 1570 1569 1569 1569 1569 1567 1565 1563 1561 1559 1556 1552 1549 1546 1542 1538 1533 1529 1524 1520 1515 1510 1505 1500 1495 1488 1481 1475 1470 1464
1568 1569 1571 1572 1569 1569 1569 1568 1565 1564 1562 1560 1556 1553 1549 1546 1542 1538 1533 1529 1524 1520 1514 1509 1504 1499 1493 1485 1477 1470 1465 1460
1569 1570 1572 1570 1569 1569 1570 1569 1567 1565 1563 1560 1557 1554 1550 1546 1542 1538 1534 1529 1525 1520 1515 1509 1504 1498 1490 1483 1474 1466 1461 1456
1570 1571 1570 1570 1569 1571 1571 1570 1568 1566 1564 1561 1558 1554 1551 1547 1543 1539 1535 1530 1525 1520 1515 1509 1503 1498 1490 1482 1472 1463 1459 1454
1570 1571 1571 1570 1570 1573 1572 1571 1569 1567 1565 1562 1558 1555 1552 1548 1544 1540 1535 1530 1526 1520 1515 1509 1503 1498 1489 1480 1470 1462 1458 1452
1569 1570 1571 1571 1572 1574 1573 1572 1570 1568 1565 1563 1560 1556 1553 1549 1545 1541 1536 1531 1526 1521 1516 1510 1504 1498 1488 1479 1469 1462 1456 1450
Wind_Speed
13 13 13 12 11 11 10 8 6 5 3 7 6 11 6 7 8 8 10 10 12 13 12 14 15 13 14 16 18 16 17 18
14 14 13 12 11 10 8 8 7 6 4 1 7 8 6 7 7 10 9 11 13 13 12 13 14 13 15 16 17 18 18 18
14 13 12 10 10 8 8 8 6 4 2 6 8 6 7 6 8 10 11 12 13 12 12 13 14 14 14 16 16 18 17 18
13 12 11 10 9 8 8 7 5 4 10 12 9 11 9 7 9 10 12 13 12 13 13 13 13 14 15 16 17 18 20 18
12 12 11 10 9 9 9 7 6 9 10 10 8 7 8 9 10 11 12 12 13 13 13 13 14 15 16 16 17 18 18 18
12 12 10 10 8 9 9 7 8 9 11 9 6 8 8 9 10 12 12 12 13 13 14 14 15 15 17 17 18 18 18 17
13 12 11 10 9 8 8 7 9 11 11 11 10 10 10 10 12 12 13 13 13 13 16 15 16 16 18 18 19 19 17 18
11 11 10 8 7 7 7 8 11 11 12 9 9 11 11 11 13 13 14 14 15 15 17 17 17 18 19 19 19 19 19 20
10 10 9 8 6 6 7 9 11 11 8 9 10 11 10 11 12 14 13 15 15 18 18 18 18 19 19 20 20 17 23 18
10 9 7 6 5 6 6 12 9 8 9 9 11 11 12 12 13 14 14 15 17 18 18 19 19 19 20 20 21 21 21 20
10 8 7 6 5 4 11 9 7 8 9 10 10 12 12 13 14 15 16 16 17 18 18 19 19 19 20 20 20 21 20 22
9 7 7 5 5 8 9 5 7 8 9 10 11 12 13 14 14 15 16 17 17 18 19 19 19 20 22 21 21 21 21 23
8 8 6 5 3 8 4 6 7 8 9 11 12 13 13 14 14 15 16 17 18 19 19 19 19 20 21 20 24 22 24 25
8 7 5 3 1 3 4 5 7 8 10 10 12 12 13 14 15 15 16 17 18 19 19 19 20 21 21 21 26 26 26 24
6 6 4 3 0 3 4 5 7 8 9 10 12 12 13 14 15 16 17 18 19 19 20 20 21 21 18 31 28 29 26 22
5 4 3 6 5 3 3 5 7 9 9 10 12 12 13 14 15 16 17 18 19 20 20 21 21 20 23 40 31 29 23 23
4 4 7 7 2 3 4 5 7 8 9 10 11 12 14 15 17 17 18 18 20 20 21 22 22 21 28 40 33 26 23 22
4 5 6 4 2 2 5 5 7 8 9 10 12 13 14 16 17 18 19 19 20 21 21 22 23 23 34 41 36 25 23 22
7 4 3 2 5 2 3 5 7 7 9 10 12 13 15 16 18 19 20 20 20 21 22 23 23 24 35 42 37 27 23 24
Wind_Direction
149 151 152 154 147 143 135 135 115 108 20 19 24 23 6 335 328 326 344 333 338 345 339 331 333 339 333 334 335 333 330 325
141 144 144 144 140 135 121 111 86 58 30 332 332 18 335 318 326 336 348 338 339 346 338 331 335 338 335 336 336 332 334 329
136 138 141 138 132 122 102 90 87 107 319 328 10 301 310 333 340 337 335 341 336 342 335 338 336 338 336 335 335 334 331 331
136 138 136 134 122 115 109 100 67 24 352 3 4 346 339 325 323 324 325 326 334 335 338 336 339 338 333 333 331 333 327 328
135 137 134 131 125 114 100 85 44 14 15 29 10 359 345 335 337 321 332 325 330 332 338 336 336 334 329 329 327 326 322 318
134 136 135 130 121 106 91 62 25 27 26 15 20 2 350 336 330 335 330 329 328 331 333 335 329 329 327 325 324 322 317 314
129 133 133 128 118 103 80 46 32 25 14 15 15 5 357 349 343 337 331 331 330 331 329 329 327 324 324 323 321 319 315 305
134 137 135 127 117 91 74 38 25 16 21 16 9 3 357 351 344 338 340 333 330 325 331 327 324 322 321 319 319 315 306 301
139 140 138 132 113 96 62 29 12 26 12 9 6 4 354 348 342 339 338 332 330 328 327 327 323 320 318 318 316 309 307 311
141 141 139 129 118 90 43 11 32 16 9 8 2 357 354 348 346 342 335 333 331 325 329 325 322 320 318 318 312 307 312 315
142 143 137 137 123 68 12 42 20 9 10 3 356 355 352 349 347 342 338 335 334 333 329 326 324 321 321 318 314 312 313 317
150 150 149 147 125 20 43 24 10 5 6 0 358 354 354 350 347 343 340 340 337 335 332 330 329 329 323 322 317 318 316 317
157 158 161 164 92 28 22 13 7 2 0 359 356 355 352 350 347 345 343 342 341 338 336 336 335 332 330 326 319 323 320 316
160 164 172 171 55 46 29 6 2 0 358 358 353 354 352 351 349 347 346 346 345 343 342 341 338 336 334 324 328 326 322 315
172 175 183 153 312 28 17 356 0 359 357 358 353 355 354 351 350 349 348 347 345 346 345 342 341 340 329 332 329 329 324 320
182 185 173 204 313 43 5 354 358 358 358 356 357 357 354 353 352 351 348 347 346 345 343 344 344 345 327 336 336 332 329 325
177 166 200 289 351 57 351 357 358 0 358 358 359 359 356 354 352 349 348 348 347 346 346 345 346 346 332 344 342 340 334 326
155 184 247 327 79 23 4 355 358 3 1 2 1 359 357 354 352 351 350 350 348 348 347 346 347 344 336 346 348 349 334 331
169 214 304 68 76 355 13 3 1 6 6 4 1 360 356 353 352 352 351 350 349 348 347 347 347 349 337 345 351 351 341 338